[TLELIST] Archives

 

[list_settings.list_name] Current TLEs

August 16th 2013 PST

HST 1 20580U 90037B 13227.12843634 .00001256 00000-0 76933-4 0 3046 2 20580 028.4692 246.3765 0002949 260.5646 161.9577 15.03834389 78571 ISS (ZARYA) 1 25544U 98067A 13228.34327774 .00006317 00000-0 11731-3 0 4025 2 25544 051.6493 170.2654 0003755 321.4054 177.7343 15.50309642844030 CXO 1 25867U 99040B 13228.75311275 .00000147 00000-0 00000+0 0 9370 2 25867 075.7834 336.0517 8503070 276.9780 000.5948 00.37798731 10766 ____________________________________________________________________ These 2-Line ...Continue Reading

[list_settings.list_name] Current TLEs

August 15th 2013 PST

HST 1 20580U 90037B 13227.12843634 .00001256 00000-0 76933-4 0 3046 2 20580 028.4692 246.3765 0002949 260.5646 161.9577 15.03834389 78571 ISS (ZARYA) 1 25544U 98067A 13227.50003596 .00006129 00000-0 11410-3 0 3951 2 25544 051.6496 174.4445 0003641 317.6486 152.1714 15.50297701843903 CXO 1 25867U 99040B 13228.75311275 .00000147 00000-0 00000+0 0 9370 2 25867 075.7834 336.0517 8503070 276.9780 000.5948 00.37798731 10766 ____________________________________________________________________ These 2-Line ...Continue Reading

[list_settings.list_name] Current TLEs

August 14th 2013 PST

HST 1 20580U 90037B 13225.48382090 .00001129 00000-0 67958-4 0 3032 2 20580 028.4693 257.1611 0002918 242.1767 259.1810 15.03829494 78333 ISS (ZARYA) 1 25544U 98067A 13226.46708531 .00005423 00000-0 10194-3 0 3882 2 25544 051.6499 179.5628 0003632 314.3421 146.7209 15.50281819843741 CXO 1 25867U 99040B 13226.11109383 .00000031 00000-0 00000+0 0 9353 2 25867 075.7716 336.1941 8504843 276.9749 001.0772 00.37802203 10751 ____________________________________________________________________ These 2-Line ...Continue Reading

[list_settings.list_name] Current TLEs

August 13th 2013 PST

HST 1 20580U 90037B 13224.13664786 .00000996 00000-0 58497-4 0 3026 2 20580 028.4693 265.9951 0002917 226.5459 167.1250 15.03827766 78123 ISS (ZARYA) 1 25544U 98067A 13225.43428438 .00004515 00000-0 86259-4 0 3824 2 25544 051.6492 184.6814 0003668 311.3216 141.8671 15.50265652843584 CXO 1 25867U 99040B 13226.11109383 .00000031 00000-0 00000+0 0 9353 2 25867 075.7716 336.1941 8504843 276.9749 001.0772 00.37802203 10751 ____________________________________________________________________ These 2-Line ...Continue Reading

[list_settings.list_name] Current TLEs

August 12th 2013 PST

HST 1 20580U 90037B 13224.13664786 .00000996 00000-0 58497-4 0 3026 2 20580 028.4693 265.9951 0002917 226.5459 167.1250 15.03827766 78123 ISS (ZARYA) 1 25544U 98067A 13224.34926888 -.00008944 00000-0 -14762-3 0 3758 2 25544 051.6488 190.0600 0003199 307.4965 206.2822 15.50239401843418 CXO 1 25867U 99040B 13226.10799489 .00000031 00000-0 00000+0 0 9365 2 25867 075.7716 336.1927 8504866 276.9758 000.6543 00.37801099 10753 ____________________________________________________________________ These 2-Line ...Continue Reading

[list_settings.list_name] Current TLEs

August 11th 2013 PST

HST 1 20580U 90037B 13222.55902061 .00001185 00000-0 71905-4 0 3010 2 20580 028.4694 276.3404 0002926 208.1791 267.7273 15.03825638 77899 ISS (ZARYA) 1 25544U 98067A 13223.44449502 .00005746 00000-0 10765-3 0 3698 2 25544 051.6486 194.5437 0003837 302.3597 198.6412 15.50248497843275 CXO 1 25867U 99040B 13223.46463429 .00000034 00000-0 00000+0 0 9344 2 25867 075.7561 336.3635 8505604 276.9752 000.9181 00.37802288 10745 ____________________________________________________________________ These 2-Line ...Continue Reading

[list_settings.list_name] Current TLEs

August 10th 2013 PST

HST 1 20580U 90037B 13221.50041730 .00001131 00000-0 68117-4 0 3002 2 20580 028.4696 283.2823 0002925 196.4671 297.1029 15.03824460 77739 ISS (ZARYA) 1 25544U 98067A 13222.47840045 .00026296 00000-0 46297-3 0 3633 2 25544 051.6490 199.3300 0004086 300.7937 205.0044 15.50253672843128 CXO 1 25867U 99040B 13223.46463429 .00000034 00000-0 00000+0 0 9344 2 25867 075.7561 336.3635 8505604 276.9752 000.9181 00.37802288 10745 ____________________________________________________________________ These 2-Line ...Continue Reading

[list_settings.list_name] Current TLEs

August 9th 2013 PST

HST 1 20580U 90037B 13220.41394208 .00001390 00000-0 86459-4 0 2995 2 20580 028.4709 290.4198 0003520 181.9712 178.0797 15.03821998 77569 ISS (ZARYA) 1 25544U 98067A 13221.50202705 .00004307 00000-0 82779-4 0 3579 2 25544 051.6486 204.1656 0003523 291.1888 162.0274 15.50217103842973 CXO 1 25867U 99040B 13223.46463429 .00000034 00000-0 00000+0 0 9344 2 25867 075.7561 336.3635 8505604 276.9752 000.9181 00.37802288 10745 ____________________________________________________________________ These 2-Line ...Continue Reading

[list_settings.list_name] Current TLEs

August 8th 2013 PST

HST 1 20580U 90037B 13220.41394208 .00001390 00000-0 86459-4 0 2995 2 20580 028.4709 290.4198 0003520 181.9712 178.0797 15.03821998 77569 ISS (ZARYA) 1 25544U 98067A 13220.47954826 .00004716 00000-0 89913-4 0 3494 2 25544 051.6482 209.2313 0003577 289.5881 213.6467 15.50208210842817 CXO 1 25867U 99040B 13220.81966141 .00000079 00000-0 00000+0 0 9337 2 25867 075.7406 336.5279 8504883 276.9952 000.8836 00.37796693 10736 ____________________________________________________________________ These 2-Line ...Continue Reading

[list_settings.list_name] Current TLEs

August 7th 2013 PST

HST 1 20580U 90037B 13218.50341667 .00001301 00000-0 80152-4 0 2977 2 20580 028.4701 302.9342 0003059 162.6823 273.8676 15.03818570 77277 ISS (ZARYA) 1 25544U 98067A 13219.29354598 .00005425 00000-0 94192-4 0 3406 2 25544 051.6484 215.1118 0003507 278.0306 082.0807 15.50197569246735 CXO 1 25867U 99040B 13220.81966141 .00000079 00000-0 00000+0 0 9337 2 25867 075.7406 336.5279 8504883 276.9952 000.8836 00.37796693 10736 ____________________________________________________________________ These 2-Line ...Continue Reading
  • This mailing list is a public mailing list - anyone may join or leave, at any time.
  • This mailing list is announce-only.

International Space Station (ISS) / Hubble Space Telescope (HST) / Chandra X-Ray Observatory Orbital Data via EMAIL

Privacy Policy:

Private list